sat.trackr.live / text

‹ back to catalog

SDA_1683

NORAD 65993 · 2025-230V

PAYLOAD ACTIVE UNKNOWN

§ Identity

Operator
Country
US
Launch date
2025-10-15
Launch site
AFWTR
Launch vehicle
Mass (kg)
RCS (m²)

External: N2YO · Heavens-Above · Gunter

§ Orbital elements

Epoch: 2026-09-20T21:31:46.115328Z

Period
104.49 min
Inclination
81.2995°
Eccentricity
0.0001155
Mean motion
13.78094634 rev/d
Perigee alt
969.8 km
Apogee alt
971.5 km
Semi-major
7,348.8 km
B*
7.8139e-5
RAAN
124.6374°
Arg perigee
54.8656°
Mean anomaly
305.2605°
Rev number
4,695

§ Raw data

SDA_16831 65993U 25230V   26263.89706152  .00000090  00000+0  78139-4 0  99912 65993  81.2995 124.6374 0001155  54.8656 305.2605 13.78094634 46951

JSON: /api/v1/satellites/65993 · /tle

For live sub-satellite position, see the globe view (requires WebGL).

§ Visibility from observer

Set your observer location to see the next 7 days of passes ≥ 10°. The values pass through the URL so the page stays shareable.

No JS? Fill the form by hand. The geolocation button needs JavaScript.